Date String (YYYY-MM-DD hh:mm:ss) UTC,Instrument flags,Ambient pressure (hPa),Sample flow (lpm),Bypass flow (lpm),Sample temperature (°C),Ambient temperature (°C),ASC tube jacket temperature (°C),LED temperature (°C),Box temperature (°C),Sample RH (%),Span deviation,Mass concentration (μg/m³),Mass concentration (μg/m³),Mass concentration (μg/m³)
DateTimeUTC,F1_M11,P_M11,Q1_M11,Q2_M11,T1_M11,T2_M11,T3_M11,T4_M11,T5_M11,U1_M11,ZSPAN_M11,X0_M11,X2_M11,X1_M11
2022-12-25 14:00:00,,0825.6,5.01,0.00,22.0,21.3,00.0,30.8,23.8,13.7,0000.0,0005.09,0002.30,0002.05
2022-12-25 14:01:00,,0825.5,5.05,0.00,22.0,21.0,00.0,30.8,23.7,13.7,0000.0,0005.35,0002.65,0002.39
2022-12-25 14:02:00,,0825.6,5.00,0.00,22.0,20.8,00.0,30.8,23.7,13.7,0000.0,0005.51,0002.93,0002.68
2022-12-25 14:03:00,,0825.6,4.97,0.00,21.9,20.6,00.0,30.8,23.6,13.7,0000.0,0005.69,0003.05,0002.81
2022-12-25 14:04:00,,0825.5,4.98,0.00,21.9,20.6,00.0,30.8,23.6,13.7,0000.0,0005.56,0003.14,0002.92
2022-12-25 14:05:00,,0825.5,5.02,0.00,21.9,20.5,00.0,30.8,23.5,13.8,0000.0,0006.17,0003.25,0003.09
2022-12-25 14:06:00,,0825.5,5.02,0.00,21.9,20.4,00.0,30.8,23.5,13.8,0000.0,0005.37,0003.41,0003.24
2022-12-25 14:07:00,,0825.5,4.99,0.00,21.9,20.3,00.0,30.8,23.5,13.8,0000.0,0005.84,0003.58,0003.40
2022-12-25 14:08:00,,0825.4,4.99,0.00,21.8,20.3,00.0,30.8,23.5,13.8,0000.0,0006.17,0003.76,0003.57
2022-12-25 14:09:00,,0825.5,4.97,0.00,21.8,20.2,00.0,30.8,23.5,13.9,0000.0,0006.48,0003.91,0003.71
2022-12-25 14:10:00,,0825.4,5.00,0.00,21.8,20.2,00.0,30.7,23.5,14.0,0000.0,0006.53,0003.95,0003.76
2022-12-25 14:11:00,,0825.5,5.03,0.00,21.8,20.7,00.0,30.7,23.6,14.0,0000.0,0006.38,0003.92,0003.75
2022-12-25 14:12:00,,0825.5,5.02,0.00,21.9,21.8,00.0,30.7,23.8,13.9,0000.0,0006.26,0003.87,0003.71
2022-12-25 14:13:00,,0825.5,4.97,0.00,22.0,22.4,00.0,30.7,24.0,13.8,0000.0,0005.98,0003.78,0003.62
2022-12-25 14:14:00,,0825.6,5.00,0.00,22.1,22.0,00.0,30.8,24.0,13.8,0000.0,0005.80,0003.70,0003.55
2022-12-25 14:15:00,,0825.6,5.03,0.00,22.1,21.7,00.0,30.8,23.9,13.8,0000.0,0005.67,0003.69,0003.54
2022-12-25 14:16:00,,0825.6,5.02,0.00,22.1,21.4,00.0,30.8,23.9,13.8,0000.0,0004.89,0003.68,0003.54
2022-12-25 14:17:00,,0825.6,4.96,0.00,22.1,21.2,00.0,30.9,23.9,13.8,0000.0,0005.06,0003.66,0003.54
2022-12-25 14:18:00,,0825.6,4.99,0.00,22.1,21.1,00.0,30.9,23.9,13.8,0000.0,0004.90,0003.64,0003.53
2022-12-25 14:19:00,,0825.6,5.02,0.00,22.1,21.0,00.0,30.9,23.8,13.7,0000.0,0004.73,0003.55,0003.45
2022-12-25 14:20:00,,0825.7,5.02,0.00,22.1,21.0,00.0,30.9,23.9,13.7,0000.0,0004.49,0003.43,0003.34
2022-12-25 14:21:00,,0825.7,4.97,0.00,22.1,21.0,00.0,30.9,23.8,13.7,0000.0,0004.52,0003.43,0003.33
2022-12-25 14:22:00,,0825.7,4.98,0.00,22.1,20.9,00.0,30.9,23.8,13.7,0000.0,0004.45,0003.40,0003.29
2022-12-25 14:23:00,,0825.8,5.02,0.00,22.1,20.8,00.0,30.9,23.8,13.8,0000.0,0004.46,0003.41,0003.30
2022-12-25 14:24:00,,0826.0,5.03,0.00,22.1,20.8,00.0,30.9,23.8,13.8,0000.0,0004.50,0003.44,0003.33
2022-12-25 14:25:00,,0826.0,4.99,0.00,22.0,20.8,00.0,30.9,23.8,13.6,0000.0,0004.68,0003.55,0003.45
2022-12-25 14:26:00,,0826.0,4.98,0.00,22.0,20.7,00.0,30.9,23.7,13.6,0000.0,0004.79,0003.61,0003.50
2022-12-25 14:27:00,,0826.1,4.98,0.00,22.0,20.6,00.0,30.9,23.7,13.7,0000.0,0004.68,0003.56,0003.46
2022-12-25 14:28:00,,0826.0,4.98,0.00,22.0,20.6,00.0,30.9,23.7,13.6,0000.0,0004.22,0003.52,0003.43
2022-12-25 14:29:00,,0826.0,5.02,0.00,22.0,20.7,00.0,30.9,23.7,13.6,0000.0,0004.14,0003.49,0003.40
2022-12-25 14:30:00,,0826.0,5.01,0.00,22.0,20.6,00.0,30.9,23.7,13.6,0000.0,0004.16,0003.51,0003.42
2022-12-25 14:31:00,,0826.0,4.98,0.00,22.0,20.6,00.0,30.9,23.7,13.7,0000.0,0004.19,0003.52,0003.44
2022-12-25 14:32:00,,0825.9,4.96,0.00,22.0,20.6,00.0,30.8,23.7,13.7,0000.0,0004.12,0003.50,0003.43
2022-12-25 14:33:00,,0825.9,5.02,0.00,22.0,20.5,00.0,30.8,23.7,13.7,0000.0,0004.17,0003.52,0003.45
2022-12-25 14:34:00,,0826.0,5.01,0.00,22.0,20.5,00.0,30.8,23.7,13.7,0000.0,0003.98,0003.43,0003.36
2022-12-25 14:35:00,,0825.9,5.01,0.00,22.0,20.6,00.0,30.8,23.7,13.7,0000.0,0003.82,0003.34,0003.27
2022-12-25 14:36:00,,0825.9,4.97,0.00,22.0,20.6,00.0,30.8,23.7,13.7,0000.0,0003.67,0003.16,0003.04
2022-12-25 14:37:00,,0825.9,4.97,0.00,21.9,20.5,00.0,30.8,23.7,13.7,0000.0,0003.39,0002.86,0002.70
2022-12-25 14:38:00,,0825.9,5.02,0.00,21.9,20.4,00.0,30.8,23.6,13.7,0000.0,0003.12,0002.61,0002.45
2022-12-25 14:39:00,,0825.9,5.03,0.00,21.9,20.3,00.0,30.8,23.6,13.7,0000.0,0002.83,0002.33,0002.18
2022-12-25 14:40:00,,0825.9,5.01,0.00,21.9,20.2,00.0,30.8,23.5,13.7,0000.0,0002.52,0002.06,0001.92
2022-12-25 14:41:00,,0825.9,4.98,0.00,21.8,20.1,00.0,30.8,23.5,13.8,0000.0,0002.36,0001.86,0001.69
2022-12-25 14:42:00,,0825.9,4.98,0.00,21.8,20.1,00.0,30.8,23.5,13.8,0000.0,0002.22,0001.73,0001.55
2022-12-25 14:43:00,,0825.9,5.00,0.00,21.8,20.0,00.0,30.8,23.4,13.9,0000.0,0002.14,0001.62,0001.44
2022-12-25 14:44:00,,0826.0,5.03,0.00,21.8,20.0,00.0,30.8,23.4,13.9,0000.0,0002.01,0001.50,0001.33
2022-12-25 14:45:00,,0826.0,5.01,0.00,21.8,20.0,00.0,30.7,23.4,13.9,0000.0,0001.93,0001.41,0001.23
2022-12-25 14:46:00,,0826.0,4.99,0.00,21.7,20.1,00.0,30.7,23.4,13.9,0000.0,0002.88,0001.33,0001.14
2022-12-25 14:47:00,,0825.9,4.97,0.00,21.7,20.1,00.0,30.7,23.4,13.9,0000.0,0002.68,0001.26,0001.09
2022-12-25 14:48:00,,0825.9,5.01,0.00,21.7,20.0,00.0,30.7,23.4,14.0,0000.0,0002.50,0001.21,0001.07
2022-12-25 14:49:00,,0825.9,5.02,0.00,21.7,20.6,00.0,30.6,23.5,14.0,0000.0,0002.64,0001.18,0001.06
2022-12-25 14:50:00,,0825.9,4.99,0.00,21.8,21.7,00.0,30.6,23.8,13.9,0000.0,0003.60,0001.17,0001.06
2022-12-25 14:51:00,,0826.0,4.95,0.00,21.9,22.1,00.0,30.6,23.9,13.8,0000.0,0003.60,0001.16,0001.04
2022-12-25 14:52:00,,0826.0,5.04,0.00,22.0,21.7,00.0,30.7,23.9,13.7,0000.0,0003.69,0001.26,0001.16
2022-12-25 14:53:00,,0826.0,5.01,0.00,22.0,21.4,00.0,30.7,23.8,13.7,0000.0,0003.86,0001.38,0001.26
2022-12-25 14:54:00,,0825.9,4.98,0.00,22.0,21.2,00.0,30.8,23.8,13.7,0000.0,0003.99,0001.46,0001.35
2022-12-25 14:55:00,,0826.0,4.98,0.00,22.0,21.1,00.0,30.8,23.8,13.6,0000.0,0004.60,0001.57,0001.46
2022-12-25 14:56:00,,0826.0,5.01,0.00,22.0,21.0,00.0,30.8,23.8,13.6,0000.0,0004.70,0001.67,0001.56
2022-12-25 14:57:00,,0826.0,5.03,0.00,22.0,20.9,00.0,30.8,23.8,13.6,0000.0,0004.00,0001.80,0001.68
2022-12-25 14:58:00,,0826.0,5.00,0.00,22.0,20.9,00.0,30.8,23.8,13.6,0000.0,0003.96,0001.92,0001.76
2022-12-25 14:59:00,,0826.1,5.01,0.00,22.0,20.9,00.0,30.8,23.8,13.6,0000.0,0004.07,0002.00,0001.82
